DW6557 Weather Reports


time (UTC)temp
C
wind
direction
speed
KPH
gust
KPH
rain 1hr
cm
rain 24hr
cm
rain mn
cm
humidity
%
barometer
mb
20260506221542 22 215 8.0 22.5 0.00 0.00 0.00 83 1013.6
20260506220044 22 225 8.0 25.7 0.00 0.00 0.00 82 1014.5
20260506214536 22 202 9.7 19.3 0.00 0.00 0.00 81 1014.6
20260506213034 23 246 11.3 29.0 0.00 0.00 0.00 80 1014.9
20260506211536 23 201 6.4 17.7 0.00 0.00 0.00 79 1015.0
20260506210033 23 228 6.4 27.4 0.00 0.00 0.00 79 1015.1
20260506204534 24 217 9.7 20.9 0.00 0.00 0.00 78 1015.2
20260506203043 23 212 8.0 24.1 0.00 0.00 0.00 78 1015.3
20260506201528 24 228 6.4 19.3 0.00 0.00 0.00 78 1015.4
20260506200031 24 217 9.7 24.1 0.00 0.00 0.00 78 1015.4
20260506194526 24 230 11.3 19.3 0.00 0.00 0.00 79 1015.6
20260506193025 24 239 9.7 25.7 0.00 0.00 0.00 78 1015.5
20260506191524 24 186 9.7 27.4 0.00 0.00 0.00 78 1015.5
20260506190032 24 229 4.8 22.5 0.00 0.00 0.00 78 1015.8
20260506184519 24 209 11.3 27.4 0.00 0.00 0.00 77 1016.1
20260506183017 24 236 11.3 25.7 0.00 0.00 0.00 77 1016.5
20260506181515 24 207 8.0 29.0 0.00 0.00 0.00 77 1016.7
20260506180015 25 228 11.3 33.8 0.00 0.00 0.00 77 1016.8
20260506174515 25 229 6.4 22.5 0.00 0.00 0.00 77 1016.8
20260506173011 25 202 8.0 17.7 0.00 0.00 0.00 77 1016.9
20260506171515 24 229 8.0 22.5 0.00 0.00 0.00 78 1017.1
20260506170009 23 223 8.0 25.7 0.00 0.00 0.00 78 1017.2
20260506164505 25 217 4.8 24.1 0.00 0.00 0.00 76 1017.6
20260506163004 25 227 8.0 24.1 0.00 0.00 0.00 75 1017.7
20260506161504 23 254 9.7 30.6 0.00 0.00 0.00 76 1017.8
20260506160001 24 211 4.8 24.1 0.00 0.00 0.00 76 1017.6
20260506154600 24 194 8.0 25.7 0.00 0.00 0.00 75 1017.6
20260506153129 24 232 6.4 22.5 0.00 0.00 0.00 74 1017.8
20260506151558 24 203 11.3 30.6 0.00 0.00 0.00 74 1017.8
20260506150057 23 263 6.4 24.1 0.00 0.00 0.00 75 1018.0
20260506144556 23 219 6.4 29.0 0.00 0.00 0.00 75 1017.9
20260506143056 23 225 9.7 24.1 0.00 0.00 0.00 75 1017.9
20260506141554 23 202 4.8 30.6 0.00 0.00 0.00 76 1017.7
20260506140054 23 246 4.8 20.9 0.00 0.00 0.00 76 1017.7
20260506134550 23 198 9.7 17.7 0.00 0.00 0.00 76 1017.7
20260506133050 23 240 9.7 20.9 0.00 0.00 0.00 76 1017.7
20260506131548 22 202 6.4 20.9 0.00 0.00 0.00 77 1017.7
20260506130048 22 196 6.4 19.3 0.00 0.00 0.00 76 1017.7
20260506124546 22 244 6.4 16.1 0.00 0.00 0.00 77 1017.9
20260506123043 21 223 3.2 12.9 0.00 0.00 0.00 78 1017.8
20260506121547 21 171 3.2 14.5 0.00 0.00 0.00 77 1017.9
20260506120040 21 208 4.8 14.5 0.00 0.00 0.00 77 1018.1
20260506114534 20 197 1.6 11.3 0.00 0.00 0.00 77 1018.1
20260506113031 20 192 4.8 12.9 0.00 0.00 0.00 77 1018.0
20260506111534 20 200 4.8 11.3 0.00 0.00 0.00 79 1017.9
20260506110030 19 216 3.2 12.9 0.00 0.00 0.00 81 1017.6
20260506104529 18 173 1.6 6.4 0.00 0.00 0.00 81 1017.8
20260506103031 18 198 1.6 9.7 0.00 0.00 0.00 81 1017.7
20260506101528 18 209 1.6 6.4 0.00 0.00 0.00 81 1017.8
20260506100030 18 200 3.2 9.7 0.00 0.00 0.00 81 1017.6
20260506094525 18 181 1.6 9.7 0.00 0.00 0.00 80 1017.6
20260506093023 18 205 1.6 8.0 0.00 0.00 0.00 79 1017.8
20260506091524 18 209 3.2 9.7 0.00 0.00 0.00 78 1017.8
20260506090024 18 184 1.6 9.7 0.00 0.00 0.00 78 1017.9
20260506084533 18 208 1.6 9.7 0.00 0.00 0.00 77 1017.8
20260506083024 18 173 1.6 12.9 0.00 0.00 0.00 76 1017.7
20260506081519 19 220 1.6 11.3 0.00 0.00 0.00 76 1017.8
20260506073016 19 217 4.8 12.9 0.00 0.00 0.00 77 1017.7
20260506071519 19 234 1.6 8.0 0.00 0.00 0.00 76 1017.6
20260506061510 20 244 3.2 19.3 0.00 0.00 0.00 77 1018.2
20260506050118 20 169 4.8 19.3 0.00 0.00 0.00 76 1018.6
20260506044609 20 190 8.0 17.7 0.00 0.00 0.00 75 1018.8
20260506043058 20 236 8.0 19.3 0.00 0.00 0.00 75 1018.9
20260506041601 20 221 1.6 22.5 0.00 0.00 0.00 75 1019.1
20260506040050 20 203 3.2 22.5 0.00 0.00 0.00 74 1019.2
20260506034552 20 194 4.8 19.3 0.00 0.00 0.00 74 1019.1
20260506033048 20 195 6.4 22.5 0.00 0.00 0.00 75 1019.1
20260506031548 20 162 6.4 17.7 0.00 0.00 0.00 75 1019.1
20260506030047 19 184 8.0 19.3 0.00 0.00 0.00 75 1019.1
20260506024546 19 165 6.4 24.1 0.00 0.00 0.00 75 1019.1
20260506023058 20 176 1.6 19.3 0.00 0.00 0.00 75 1019.3
20260506021545 20 189 4.8 19.3 0.00 0.00 0.00 75 1019.4
20260506020051 20 142 8.0 24.1 0.00 0.00 0.00 74 1019.4
20260506014544 20 149 6.4 19.3 0.00 0.00 0.00 75 1019.5
20260506013052 20 182 3.2 22.5 0.00 0.00 0.00 75 1019.4
20260506011546 20 201 8.0 22.5 0.00 0.00 0.00 73 1019.4
20260506010042 20 201 8.0 19.3 0.00 0.00 0.00 75 1019.3
20260506004540 20 205 6.4 17.7 0.00 0.00 0.00 75 1019.1
20260506003041 20 172 3.2 24.1 0.00 0.00 0.00 74 1019.0
20260506001539 20 194 8.0 22.5 0.00 0.00 0.00 73 1019.1
20260506000038 20 226 6.4 25.7 0.00 0.00 0.00 73 1019.1
20260505234538 20 176 6.4 16.1 0.00 0.00 0.00 74 1018.8
20260505233037 20 194 4.8 25.7 0.00 0.00 0.00 73 1018.6
20260505231537 20 166 3.2 20.9 0.00 0.00 0.00 73 1018.6
20260505230056 20 225 4.8 20.9 0.00 0.00 0.00 75 1018.5
20260505224536 20 209 9.7 29.0 0.00 0.00 0.00 74 1018.4
20260505223041 20 234 3.2 19.3 0.00 0.00 0.00 75 1018.4